Content
SEND FEEDBACK

Daily
Averages
Monthly
Summary
United States of America

MUSKEGON, MICHIGAN


Home > North America > United States > Michigan
Elevation: 191 meters     Latitude: 43 10N     Longitude: 086 14W

WEATHER
 
SELECT A DAY
Number of Records: 219,949;   Date Range: 1/1/95 - 7/29/14
 
SHARE

PRINT THIS DATA

[ ← Previous Day ]
WEATHER ALMANAC - 23 JANUARY, 2013
[ Next Day → ]
[ °F ]   °C
Weather ElementAverageHighLow
Temperature-10.5 °C-7 °C (2:27 pm)-14.4 °C (1:55 am)
Dewpoint-13.8 °C-10 °C (5:50 pm)-18 °C (12:24 am)
Humidity77.2 %85 % (6:05 am)68 % (10:55 am)
Barometer1021.7 hPa1026.8 hPa (12:55 am)1017.6 hPa (4:00 pm)
Wind Speed14 km/h37 km/h (9:12 pm)
Wind Gust44.4 km/h (9:12 pm)
Weather ElementAverage
Visibility2.9 km
Wind DirectionSW (221.6 °)

Weather ElementTotal
Precipitation6.35 mm
Heating Degree Days29.1 (Base 18.3)
Averaged from 101 records on 23 January, 2013
WEATHER CONDITIONS BREAKOUT
WIND DIRECTION BREAKOUT
WEATHER BY HOUR - 23 JANUARY, 2013
[ °F ]   °C
Local TimeTemperatureDewpointHumidityBarometerVisibilityWind DirectionWind SpeedGust SpeedPrecipitationEventsConditions
12:24 AM-14 °C-18 °C72 %1025.4 hPa16.1 kmCalm0 mmOvercast
12:55 AM-13.9 °C-16.7 °C80 %1026.8 hPa4 kmCalm0 mmSnowLight Snow
1:03 AM-14 °C-17 °C79 %1025.1 hPa1.9 kmCalm0 mmSnowLight Snow
1:25 AM-14 °C-17 °C79 %1024.7 hPa3.2 kmEast (100°)7.4 km/h0 mmSnowLight Snow
1:35 AM-14 °C-17 °C79 %1024.7 hPa4.8 kmESE (120°)5.6 km/h0 mmSnowLight Snow
1:46 AM-14 °C-17 °C79 %1024.7 hPa2.9 kmESE (120°)7.4 km/h0 mmSnowLight Snow
1:55 AM-14.4 °C-17.2 °C80 %1026.4 hPa1.9 kmESE (120°)9.3 km/h0 mmSnowLight Snow
2:17 AM-14 °C-17 °C79 %1024.4 hPa4.8 kmSE (130°)11.1 km/h0 mmSnowLight Snow
2:35 AM-14 °C-17 °C79 %1024.7 hPa4 kmSE (130°)7.4 km/h0 mmSnowLight Snow
2:43 AM-14 °C-17 °C79 %1024.7 hPa1.6 kmSE (140°)5.6 km/h0 mmSnowLight Snow
2:55 AM-13.9 °C-16.7 °C80 %1026.4 hPa1.6 kmSE (130°)7.4 km/h0 mmSnowLight Snow
3:09 AM-14 °C-17 °C79 %1024.7 hPa3.2 kmSE (140°)9.3 km/h0 mmSnowLight Snow
3:19 AM-14 °C-17 °C79 %1025.1 hPa2.4 kmSSE (150°)7.4 km/h0 mmSnowLight Snow
3:52 AM-14 °C-17 °C79 %1024.4 hPa3.2 kmSE (140°)11.1 km/h0 mmSnowLight Snow
3:53 AM-13.9 °C-16.7 °C80 %1026.1 hPa3.2 kmSE (130°)11.1 km/h0 mmSnowLight Snow
4:11 AM-14 °C-17 °C79 %1024.4 hPa6.4 kmSE (130°)9.3 km/h0 mmSnowLight Snow
4:19 AM-14 °C-17 °C79 %1024.4 hPa2.9 kmSE (140°)7.4 km/h0 mmSnowLight Snow
4:26 AM-14 °C-17 °C79 %1024.4 hPa1.6 kmSE (130°)9.3 km/h0 mmSnowLight Snow
4:34 AM-14 °C-17 °C79 %1024 hPa1.3 kmSE (140°)9.3 km/h0 mmSnowLight Snow
4:46 AM-14 °C-17 °C79 %1024 hPa2.4 kmESE (120°)7.4 km/h0 mmSnowLight Snow
4:52 AM-14 °C-17 °C79 %1024 hPa4.8 kmESE (120°)7.4 km/h0 mmSnowLight Snow
4:55 AM-13.9 °C-16.7 °C80 %1025.4 hPa4.8 kmSE (130°)9.3 km/h0 mmSnowLight Snow
5:02 AM-14 °C-17 °C79 %1023.7 hPa4 kmSE (130°)7.4 km/h0 mmSnowLight Snow
5:23 AM-14 °C-17 °C79 %1023.7 hPa8 kmSE (140°)9.3 km/h0 mmSnowLight Snow
5:35 AM-14 °C-17 °C79 %1023.7 hPa3.2 kmSE (140°)9.3 km/h0 mmSnowLight Snow
5:45 AM-14 °C-17 °C79 %1023.7 hPa3.2 kmSE (130°)9.3 km/h0 mmSnowLight Snow
5:53 AM-14 °C-17 °C79 %1023.4 hPa4.8 kmSE (140°)7.4 km/h0 mmSnowLight Snow
5:55 AM-13.9 °C-16.7 °C80 %1025.1 hPa4.8 kmSSE (150°)7.4 km/h0 mmSnowLight Snow
6:05 AM-14 °C-16 °C85 %1023.4 hPa2.4 kmSSE (150°)7.4 km/h0 mmSnowLight Snow
6:34 AM-13 °C-16 °C79 %1023.4 hPa4.8 kmSE (130°)13 km/h0 mmSnowLight Snow
6:47 AM-13 °C-16 °C79 %1023 hPa2.9 kmSE (140°)16.7 km/h0 mmSnowLight Snow
6:53 AM-13 °C-16 °C79 %1023 hPa3.2 kmSE (130°)16.7 km/h0 mmSnowLight Snow
6:55 AM-13.3 °C-16.1 °C80 %1024.7 hPa4 kmSE (130°)16.7 km/h0 mmSnowLight Snow
7:10 AM-13 °C-16 °C79 %1023 hPa1.9 kmSE (130°)13 km/h0 mmSnowLight Snow
7:30 AM-13 °C-16 °C79 %1022.7 hPa1.3 kmSE (130°)11.1 km/h0 mmSnowLight Snow
7:37 AM-13 °C-16 °C79 %1022.7 hPa2.4 kmSE (130°)13 km/h0 mmSnowLight Snow
7:43 AM-13 °C-16 °C79 %1022.7 hPa4.8 kmSE (130°)14.8 km/h0 mmSnowLight Snow
7:55 AM-13.3 °C-16.1 °C80 %1024 hPa4.8 kmESE (120°)13 km/h0 mmSnowLight Snow
8:34 AM-13 °C-16 °C79 %1022.4 hPa6.4 kmEast (80°)5.6 km/h0 mmSnowLight Snow
8:50 AM-13 °C-16 °C79 %1022.4 hPa14.5 kmENE (70°)7.4 km/h0 mmSnowLight Snow
8:55 AM-12.2 °C-15.6 °C76 %1024 hPa4.8 kmEast (80°)7.4 km/h0 mmSnowLight Snow
9:04 AM-13 °C-15 °C85 %1022.4 hPa2.9 kmEast (100°)9.3 km/h0 mmSnowLight Snow
9:30 AM-12 °C-15 °C79 %1022.4 hPa1.3 kmENE (70°)9.3 km/h0 mmSnowLight Snow
9:55 AM-11.7 °C-14.4 °C81 %1023.7 hPa1.3 kmEast (80°)7.4 km/h0 mmSnowLight Snow
10:13 AM-11 °C-14 °C79 %1022 hPa1.9 kmCalm0 mmSnowLight Snow
10:47 AM-9 °C-13 °C73 %1022 hPa3.2 kmWest (280°)11.1 km/h0 mmSnowLight Snow
10:55 AM-8.9 °C-13.9 °C68 %1023.4 hPa3.2 kmWNW (290°)20.4 km/h0 mmSnowLight Snow
11:17 AM-9 °C-13 °C73 %1022 hPa1.9 kmWest (270°)18.5 km/h0 mmSnowLight Snow
11:30 AM-8 °C-13 °C68 %1021.7 hPa3.2 kmWest (270°)20.4 km/h33.3 km/h0 mmSnowLight Snow
11:44 AM-8 °C-13 °C68 %1021.7 hPa2.4 kmWNW (290°)22.2 km/h0 mmSnowLight Snow
11:55 AM-8.3 °C-13.3 °C68 %1023 hPa3.2 kmWest (280°)18.5 km/h0 mmSnowLight Snow
12:55 PM-8.3 °C-12.8 °C71 %1021.7 hPa1.9 kmWest (270°)20.4 km/h0 mmSnowLight Snow
1:23 PM-8 °C-12 °C73 %1020 hPa0.8 kmWest (280°)14.8 km/h0 mmSnowLight Snow
1:33 PM-8 °C-12 °C73 %1019.6 hPa0.8 kmWest (280°)11.1 km/h0.25 mmSnowLight Snow
1:47 PM-8 °C-12 °C73 %1019.3 hPa0.8 kmWest (270°)14.8 km/h0.25 mmSnowSnow
1:51 PM-8 °C-11 °C79 %1019.3 hPa0.3 kmWest (270°)14.8 km/h0.25 mmSnowHeavy Snow
1:55 PM-8.3 °C-11.1 °C81 %1020.7 hPa0.3 kmWest (270°)11.1 km/h0.25 mmSnowHeavy Snow
2:10 PM-8 °C-11 °C79 %1019 hPa0.8 kmWest (280°)13 km/h0.25 mmSnowLight Snow
2:27 PM-7 °C-12 °C68 %1018.6 hPa0.8 kmWest (280°)18.5 km/h0.51 mmSnowLight Snow
2:55 PM-7.2 °C-11.7 °C71 %1019.6 hPa2.4 kmWSW (250°)16.7 km/h0.51 mmSnowLight Snow
3:29 PM-7 °C-12 °C68 %1017.9 hPa1.3 kmWest (260°)16.7 km/h0 mmSnowLight Snow
3:46 PM-7 °C-12 °C68 %1017.9 hPa2.4 kmWest (280°)16.7 km/h0.25 mmSnowLight Snow
3:52 PM-8 °C-11 °C79 %1017.9 hPa1.3 kmWest (260°)16.7 km/h0.25 mmSnowLight Snow
3:55 PM-7.8 °C-11.1 °C78 %1019.3 hPa1.3 kmWest (260°)14.8 km/h0.25 mmSnowLight Snow
4:00 PM-7 °C-11 °C74 %1017.6 hPa1.6 kmWest (260°)14.8 km/h0 mmSnowLight Snow
4:47 PM-7 °C-11 °C74 %1017.6 hPa0.8 kmWNW (290°)13 km/h0 mmSnowLight Snow
4:55 PM-7.2 °C-11.1 °C74 %1019 hPa1.6 kmWNW (290°)11.1 km/h0 mmSnowLight Snow
5:15 PM-7 °C-11 °C74 %1017.6 hPa0.8 kmWNW (290°)13 km/h25.9 km/h0 mmSnowLight Snow
5:24 PM-7 °C-11 °C74 %1017.6 hPa2.4 kmWNW (290°)5.6 km/h0.25 mmSnowLight Snow
5:41 PM-7 °C-11 °C74 %1017.6 hPa0.3 kmWNW (290°)14.8 km/h0.25 mmSnowHeavy Snow
5:50 PM-7 °C-10 °C80 %1017.6 hPa1.3 kmWNW (290°)11.1 km/h0.51 mmSnowLight Snow
5:55 PM-7.2 °C-10 °C81 %1019 hPa1.3 kmWNW (290°)9.3 km/h0.51 mmSnowLight Snow
6:02 PM-7 °C-10 °C80 %1017.6 hPa1.6 kmNW (310°)16.7 km/h0 mmSnowLight Snow
6:06 PM-7 °C-11 °C74 %1017.6 hPa1.6 kmNW (310°)11.1 km/h0 mmSnowLight Snow
6:32 PM-7 °C-10 °C80 %1017.6 hPa0.8 kmNW (320°)13 km/h0.25 mmSnowSnow
6:52 PM-7 °C-10 °C80 %1017.6 hPa0.8 kmNNW (340°)16.7 km/h0.51 mmSnowSnow
6:55 PM-7.2 °C-10 °C81 %1019 hPa0.8 kmNNW (330°)14.8 km/h0.51 mmSnowSnow
7:00 PM-7 °C-10 °C80 %1017.6 hPa1.6 kmNNW (330°)13 km/h0 mmSnowLight Snow
7:14 PM-7 °C-11 °C74 %1017.6 hPa4.8 kmNW (320°)13 km/h0 mmSnowLight Snow
7:23 PM-7 °C-11 °C74 %1017.6 hPa1.3 kmNW (310°)20.4 km/h31.5 km/h0 mmSnowLight Snow
7:55 PM-7.8 °C-11.1 °C78 %1019.6 hPa1.3 kmNNW (330°)25.9 km/h35.2 km/h0 mmSnowLight Snow
8:04 PM-8 °C-11 °C79 %1018.3 hPa1.3 kmNNW (340°)18.5 km/h0 mmSnowLight Snow
8:38 PM-8 °C-12 °C73 %1019 hPa1.3 kmNorth (350°)29.6 km/h0.25 mmSnowLight Snow
8:55 PM-8.9 °C-11.7 °C81 %1020.7 hPa1.3 kmNNW (330°)27.8 km/h42.6 km/h0.25 mmSnowLight Snow
9:12 PM-9 °C-12 °C79 %1020 hPa0.8 kmNNW (340°)37 km/h44.4 km/h0 mmSnowSnow
9:32 PM-9 °C-12 °C79 %1020.3 hPa0.8 kmNNW (340°)27.8 km/h42.6 km/h0 mmSnowSnow
9:38 PM-9 °C-12 °C79 %1020.7 hPa1.3 kmNNW (340°)27.8 km/h0 mmSnowLight Snow
9:55 PM-9.4 °C-12.2 °C80 %1022 hPa1.3 kmNorth (350°)29.6 km/h38.9 km/h0 mmSnowLight Snow
10:14 PM-9 °C-12 °C79 %1021 hPa4 kmNNW (340°)20.4 km/h0 mmSnowLight Snow
10:21 PM-9 °C-13 °C73 %1021 hPa4.8 kmNNW (340°)20.4 km/h0 mmSnowLight Snow
10:27 PM-9 °C-13 °C73 %1021.3 hPa3.2 kmNorth (350°)27.8 km/h0 mmSnowLight Snow
10:35 PM-9 °C-13 °C73 %1021.7 hPa4.8 kmNorth (350°)20.4 km/h0 mmSnowLight Snow
10:39 PM-9 °C-12 °C79 %1021.7 hPa2.9 kmNorth (350°)22.2 km/h0 mmSnowLight Snow
10:45 PM-9 °C-12 °C79 %1022 hPa0.8 kmNorth (360°)18.5 km/h31.5 km/h0 mmSnowSnow
10:53 PM-9 °C-12 °C79 %1022 hPa0.3 kmNorth (350°)27.8 km/h38.9 km/h0 mmSnowHeavy Snow
10:55 PM-9.4 °C-12.2 °C80 %1023.4 hPa0.3 kmNorth (350°)25.9 km/h38.9 km/h0 mmSnowHeavy Snow
11:02 PM-9 °C-12 °C79 %1022 hPa1.6 kmNNW (340°)24.1 km/h0 mmSnowLight Snow
11:12 PM-9 °C-13 °C73 %1022.4 hPa2.9 kmNorth (350°)18.5 km/h0 mmSnowLight Snow
11:15 PM-9 °C-13 °C73 %1022.4 hPa4.8 kmNorth (360°)14.8 km/h29.6 km/h0 mmSnowLight Snow
11:31 PM-10 °C-13 °C79 %1022.4 hPa12.9 kmNNW (340°)20.4 km/h37 km/h0 mmSnowLight Snow
11:55 PM-10 °C-13.3 °C77 %1024.4 hPa6.4 kmNNW (340°)18.5 km/h0 mmSnowLight Snow
Hourly data recorded from KMKG, located 0 kilometers away from Muskegon, Michigan







STORIES FROM OUR PARTNERS